Weather History for Belize, Belize

Change the Weather History Date:

Monday, July 29, 2013

  Actual Average Record
Temperature  
Mean Temperature 84 °F -  
Max Temperature 90 °F 89 °F 90 °F (2013)
Min Temperature 79 °F 76 °F 75 °F (1998)
Cooling Degree Days 20    
Growing Degree Days 34 (Base 50)    
Moisture  
Dew Point 76 °F    
Average Humidity 72    
Maximum Humidity 84    
Minimum Humidity 58    
Precipitation  
Precipitation 0.00 in 0.25 in - ()
Sea Level Pressure  
Sea Level Pressure 30.00 in    
Wind  
Wind Speed 8 mph ()    
Max Wind Speed 14 mph    
Max Gust Speed -    
Visibility 8.2 miles    
Events Rain    
Averages and records for this station are not official NWS values.
T = Trace of Precipitation, MM = Missing Value Source: Averaged Metar Reports

Daily Weather History Graph

Daily Weather History Graph

Search for Another Location

Airport:

Trip Planner

Search our weather history database for the weather conditions in past years. The results will help you decide how hot, cold, wet, or windy it might be!

Date:

Astronomy

Jul. 29, 2013 Rise Set
Actual Time 5:31 AM CST 6:27 PM CST
Civil Twilight 5:08 AM CST 6:50 PM CST
Nautical Twilight 4:40 AM CST 7:18 PM CST
Astronomical Twilight 4:13 AM CST 7:46 PM CST
Moon 11:42 PM CST (7/29) 11:58 AM CST (7/29)
Length of Visible Light 13h 42m
Length of Day
12h 56m
Waning Gibbous, 50% of the Moon is Illuminated
Jul 29
Waning Gibbous
Aug 6
New
Aug 14
First Quarter
Aug 20
Full
Aug 28
Last Quarter

Hourly Weather History & Observations

Time (CST) Temp. Heat Index Dew Point Humidity Pressure Visibility Wind Dir Wind Speed Gust Speed Precip Events Conditions
12:00 AM 83 °F - 76 °F 73% 29.99 in 12 mi East 11.5 mph - -   Partly Cloudy
3:00 AM 81 °F - 75 °F 76% 29.94 in 12 mi East 9.2 mph - -   Mostly Cloudy
5:00 AM 80.6 °F 86.2 °F 75.2 °F 84% 29.95 in 6.2 mi ESE 6.9 mph - N/A   Mostly Cloudy
6:00 AM 81 °F - 76 °F 80% 29.97 in 12 mi East 5.8 mph - -   Scattered Clouds
6:00 AM 80.6 °F 86.2 °F 75.2 °F 84% 29.95 in 6.2 mi East 5.8 mph - N/A   Partly Cloudy
7:00 AM 84.2 °F 94.1 °F 77.0 °F 79% 29.98 in 6.2 mi East 6.9 mph - N/A   Partly Cloudy
8:00 AM 86.0 °F 96.9 °F 77.0 °F 74% 30.01 in 6.2 mi East 13.8 mph - N/A   Mostly Cloudy
9:00 AM 87.8 °F 99.7 °F 77.0 °F 70% 30.01 in 6.2 mi East 9.2 mph - N/A   Scattered Clouds
10:00 AM 87.8 °F 99.7 °F 77.0 °F 70% 30.02 in 6.2 mi East 10.4 mph - N/A   Scattered Clouds
11:00 AM 87.8 °F 97.6 °F 75.2 °F 66% 30.03 in 6.2 mi East 10.4 mph - N/A   Scattered Clouds
12:00 PM 84 °F - 79 °F 81% 30.03 in 12 mi ESE 5.8 mph - - Rain Light Rain Showers
12:00 PM 84.2 °F 96.1 °F 78.8 °F 84% 30.02 in 6.2 mi ESE 5.8 mph - N/A   Scattered Clouds
1:00 PM 87.8 °F 97.6 °F 75.2 °F 66% 30.00 in 6.2 mi ENE 11.5 mph - N/A   Scattered Clouds
2:00 PM 89.6 °F 99.8 °F 75.2 °F 62% 29.99 in 6.2 mi East 10.4 mph - N/A   Scattered Clouds
3:00 PM 88 °F - 75 °F 58% 29.99 in 14 mi East 10.4 mph - -   Partly Cloudy
3:00 PM 87.8 °F 97.6 °F 75.2 °F 66% 29.98 in 6.2 mi East 10.4 mph - N/A   Scattered Clouds
4:00 PM 87.8 °F 97.6 °F 75.2 °F 66% 29.98 in 6.2 mi East 10.4 mph - N/A   Scattered Clouds
5:00 PM 87.8 °F 97.6 °F 75.2 °F 66% 29.99 in 6.2 mi East 9.2 mph - N/A   Scattered Clouds
6:00 PM 86 °F - 76 °F 65% 30.01 in 12 mi East 9.2 mph - -   Partly Cloudy
6:00 PM 86.0 °F 95.1 °F 75.2 °F 70% 30.00 in 6.2 mi East 9.2 mph - N/A   Scattered Clouds
9:00 PM 84 °F - 76 °F 71% 30.07 in 12 mi East 10.4 mph - -   Scattered Clouds